Location: Hawaiian Village Mobile Home Park
(32.8359°N, 116.9792°W)
Time: 03:33:45
(UTC+00:00)

ADEOS - Pass Details

Date: 05 December 2021
Orbit: 792 x 795 km, 98.9° (Epoch: 23 January)

Event Time Altitude Azimuth Distance (km) Brightness Sun altitude
Rises 12:22:42 0° 28° (NNE) 3,298 7.0 -27.4°
Reaches altitude 10° 12:25:26 10° 41° (NE) 2,364 6.4 -26.8°
Maximum altitude 12:29:43 26° 97° (E) 1,536 5.7 -25.9°
Drops below altitude 10° 12:33:58 10° 152° (SSE) 2,351 6.5 -25.0°
Sets 12:36:39 0° 165° (SSE) 3,275 7.1 -24.5°
